星链-32395 (STARLINK-32395)

导读 | 豆包AI

STARLINK-32395是美国太空探索技术公司(SpaceX)于2024年10月26日发射的星链(Starlink)系列卫星,运行于近地轨道,属于星链全球卫星互联网星座的组成部分。该卫星旨在为全球尤其是基础设施匮乏地区提供高速低延迟宽带互联网服务,支持视频通话、在线游戏等应用,推动星链网络的全球覆盖与服务扩展。

基本信息
目录编号:
61679
目录名称:
STARLINK-32395
国际标识:
2024-193U
轨道中心:
EARTH
卫星名称:
星链-32395
卫星全名:
星链-32395 (STARLINK-32395)
卫星状态:
在轨 (已飞行505 天)
发射日期:
2024-10-26 UTC
国别 :
美国 (US)
星等 :
--
轨道信息
数据来源 国际轨道数据
星历时间: 2026-03-14T14:33:45+0800
1天前
查看轨道信息
半长轴: 6853.364km
偏心率: 0.0001164
轨道倾角: 53.161°
近地点辐角 78.028°
升交点赤经 70.050°
平近点角 282.085°
近地点: 474.429km
远地点: 476.025km
周期: 94.106分钟
每日圈数: 15.301963
详细信息
固有亮度:
5
最大亮度:
2.5
卫星平台:
Starlink V1.0
覆盖范围:
全球
运营商:
太空探索技术公司
运营商所在国:
美国
制造商(研发单位):
太空探索技术公司
制造商所在国:
美国
使用方式:
暂无
卫星简介
Starlink 计划是 SpaceX 推出的全球卫星互联网项目,通过发射低轨道卫星,为全球尤其是偏远地区提供高速、低延迟的互联网服务。自 2019 年起,Starlink 已部署数千颗卫星,旨在缩小全球数字鸿沟,推动互联网普及。该项目还为军事、航空等行业提供通信支持,带来广泛经济效益。
2D轨道图
3D轨道图
轨道高度分析图
轨道倾角分析图
轨道综合分析图
查看轨道综合分析图